[[{"header":{"parameterUnit":"m.s-1","parameterCategory":1,"la1":30.2991,"la2":30.254,"lo1":-89.0895,"lo2":-89.0444,"dy":0.0017,"dx":0.0017,"nx":28,"ny":28,"refTime":"2026-02-04T03:00:00:Z","depth":0,"parameterNumber":2,"parameterNumberName":"U-component_of_WINDS"},"data":[0,0,0,0,0,0,0,0,0,0,0,0,0,0,0,0,0,0,0,0,0,0,0,0,0,0,0,0,0,0,0,0,0,0,0,0,0,0,0,0,0,0,0,0,0,0,0,0,0,0,0,0,0,0,0,0,0,0,3.5296,3.5298,0,3.5456,3.5458,3.546,3.5417,3.5413,3.541,3.5407,3.5575,3.5582,3.5589,0,0,0,0,0,0,0,0,0,0,0,0,0,3.4957,3.4964,3.5296,3.5298,3.53,3.5456,3.5458,3.5461,3.5417,3.5413,3.5409,3.5406,3.5572,3.5581,3.559,0,0,0,0,0,0,0,0,0,0,0,0,0,3.511,3.4966,3.5296,3.5297,3.5299,3.5456,3.5458,3.5461,3.5418,3.5413,3.5408,3.5404,3.5569,3.558,3.5591,3.5757,0,0,3.5626,3.563,0,0,0,0,0,0,0,0,3.5101,3.5122,3.5295,3.5297,3.53,3.5411,3.54,3.5561,3.5419,3.5373,3.5407,3.5401,3.5525,3.5539,3.558,3.5765,3.5772,3.5627,3.5633,3.5638,3.5641,0,0,0,0,0,0,0,3.5091,3.5115,3.536,3.5298,3.5301,3.5291,3.5308,3.543,3.5474,3.5377,3.5374,3.5393,3.5525,3.5569,3.5584,3.5775,3.5626,3.5636,3.5643,3.5647,3.6107,3.6112,0,0,0,0,0,0,3.5078,3.5106,3.5355,3.5364,3.5186,3.5301,3.532,3.5381,3.5473,3.5482,3.5397,3.5391,3.5552,3.5571,3.5589,3.5791,3.5638,3.5649,3.5655,3.6101,3.6108,3.6114,0,0,0,0,0,0,3.5071,3.51,3.5348,3.5235,3.5266,3.5312,3.5381,3.5386,3.543,3.5488,3.5496,3.5434,3.5549,3.5574,3.5716,3.5796,3.5654,3.5664,3.6095,3.6103,3.6111,3.6196,0,0,0,0,0,0,3.5061,3.5098,3.516,3.5236,3.5272,3.5471,3.5386,3.5393,3.545,3.5442,3.5525,3.5534,3.5547,3.57,3.5727,3.5809,3.5673,3.6088,3.6099,3.6108,3.6186,3.6206,3.6223,0,0,0,0,0,3.5049,3.5178,3.5164,3.5194,3.5351,3.5476,3.5496,3.5508,3.5456,3.552,3.5558,3.5531,3.5783,3.5715,3.5745,3.5832,3.6083,3.6095,3.6107,3.6178,3.6202,3.6222,0,0,0,0,0,0,3.5111,3.5188,3.5173,3.533,3.5397,3.5468,3.5549,3.5533,3.5616,3.5607,3.5619,3.5638,3.5784,3.5822,3.5745,3.5999,3.5926,3.5945,3.5968,3.5992,3.601,3.5998,3.5682,0,0,0,0,0,3.5143,3.5237,3.5299,3.5432,3.5466,3.5502,3.5557,3.5561,3.563,3.5659,3.5706,3.5776,3.5871,3.5933,3.6024,3.6191,3.6209,3.6266,3.6284,3.6299,3.6316,3.6409,3.6435,3.6154,3.6154,3.6154,0,0,3.521,3.5264,3.5322,3.5446,3.5498,3.5597,3.5526,3.5633,3.5707,3.5675,3.5813,3.5851,3.5929,3.6086,3.6157,3.6122,3.6397,3.6315,3.6326,3.6335,3.6424,3.6451,3.6474,3.6163,3.6161,3.616,0,0,3.5383,3.5432,3.5549,3.5603,3.5682,3.5705,3.5733,3.5808,3.5831,3.5969,3.5948,3.6037,3.6199,3.6257,3.6308,3.6504,3.6484,3.6533,3.663,3.672,3.6742,3.6762,3.6834,3.6859,3.6549,3.6549,3.655,0,3.5457,3.5603,3.5612,3.5721,3.5777,3.5752,3.5872,3.5923,3.6029,3.6069,3.6028,3.6232,3.6284,3.6454,3.6502,3.6543,3.6577,3.6524,3.6738,3.6758,3.6777,3.6845,3.6872,3.6555,3.6554,3.6554,3.6553,0,3.5691,3.5793,3.5878,3.598,3.6045,3.6159,3.6186,3.6252,3.625,3.6278,3.642,3.6481,3.6584,3.6624,3.6623,3.6795,3.6771,3.6734,3.6662,3.6809,3.6874,3.69,3.6563,3.6561,3.6559,3.6558,0,0,3.5908,3.6013,3.6044,3.609,3.6176,3.6256,3.637,3.647,3.6527,3.66,3.6697,3.6836,3.6803,3.686,3.6866,3.6945,3.7099,3.6899,3.6901,3.6935,3.7294,3.7323,3.7353,3.7086,3.7091,3.7095,3.7288,0,3.6089,3.6287,3.6299,3.648,3.6575,3.6554,3.6653,3.6717,3.6747,3.6833,3.6866,3.6965,3.6913,3.6948,3.7025,3.7064,3.7172,3.705,3.7178,3.7183,3.716,3.7386,3.7416,3.7595,3.7313,3.7318,3.7321,0,3.6327,3.6408,3.6598,3.6672,3.6712,3.6801,3.6894,3.6976,3.705,3.7066,3.7131,3.7126,3.7244,3.7167,3.7331,3.7248,3.7301,3.7328,3.7336,3.7349,3.7261,3.7407,3.7653,3.768,3.736,3.7357,3.7354,0,3.6468,3.6624,3.6758,3.6798,3.6888,3.6951,3.6991,3.706,3.7119,3.7202,3.7241,3.7336,3.7389,3.7463,3.7485,3.7426,3.7649,3.7573,3.7668,3.7667,3.7716,3.7713,3.7976,3.7749,3.7748,3.7748,3.7747,0,3.667,3.6788,3.6823,3.6906,3.7037,3.705,3.7181,3.7217,3.7279,3.737,3.7357,3.7443,3.7465,3.7556,3.7573,3.7708,3.7731,3.7749,3.7753,3.7751,3.7749,3.7787,3.7775,3.7755,3.7753,3.7752,3.7751,0,3.685,3.6878,3.7023,3.7096,3.7117,3.7211,3.7274,3.7354,3.7382,3.7497,3.7525,3.757,3.7676,3.7704,3.7831,3.7843,3.8002,3.7993,3.7977,3.7978,3.8071,3.8063,3.8368,3.841,3.8154,3.8157,3.8159,0,3.6978,3.7068,3.715,3.7209,3.7252,3.7348,3.7409,3.7425,3.749,3.7581,3.7651,3.7755,3.784,3.8011,3.8055,3.8153,3.8147,3.8248,3.8162,3.8158,3.8151,3.8146,3.8156,3.8264,3.8267,3.8269,3.8271,0,3.7202,3.7212,3.7299,3.7393,3.7466,3.754,3.7611,3.7661,3.7688,3.7762,3.7869,3.7935,3.8065,3.8169,3.8268,3.8311,3.8297,3.8297,3.8325,3.8325,3.8312,3.8322,3.8023,3.8291,3.8289,3.8287,3.8286,3.8285,3.7361,3.7441,3.7511,3.761,3.7665,3.7732,3.7812,3.785,3.7939,3.8046,3.805,3.8168,3.8241,3.8372,3.8421,3.8515,3.8485,3.8524,3.8534,3.8544,3.8553,3.8296,3.8533,3.8532,3.8532,3.8531,3.8531,0,3.7586,3.763,3.7721,3.7821,3.7899,3.7877,3.7955,3.8023,3.8126,3.8195,3.8278,3.8403,3.8504,3.8557,3.8659,3.8723,3.872,3.875,3.8746,3.8756,3.8573,3.854,3.8751,3.8751,3.8751,3.8751,3.8751,3.8751,3.7713,3.7846,3.7865,3.8026,3.807,3.8184,3.8231,3.8294,3.8349,3.8489,3.8573,3.8606,3.8669,3.8775,3.8868,3.8881,3.892,3.8954,3.8964,3.8792,3.8769,3.8748,3.8717,3.8962,3.8962,3.9139,3.9141,3.9142]},{"header":{"parameterUnit":"m.s-1","parameterCategory":1,"la1":30.2991,"la2":30.254,"lo1":-89.0895,"lo2":-89.0444,"dy":0.0017,"dx":0.0017,"nx":28,"ny":28,"refTime":"2026-02-04T03:00:00:Z","depth":0,"parameterNumber":3,"parameterNumberName":"V-component_of_WINDS"},"data":[0,0,0,0,0,0,0,0,0,0,0,0,0,0,0,0,0,0,0,0,0,0,0,0,0,0,0,0,0,0,0,0,0,0,0,0,0,0,0,0,0,0,0,0,0,0,0,0,0,0,0,0,0,0,0,0,0,0,-3.6852,-3.6854,0,-3.7046,-3.7049,-3.7051,-3.704,-3.7037,-3.7034,-3.7032,-3.7233,-3.7241,-3.7248,0,0,0,0,0,0,0,0,0,0,0,0,0,-3.6471,-3.6478,-3.6851,-3.6854,-3.6856,-3.7046,-3.7049,-3.7051,-3.7041,-3.7037,-3.7034,-3.703,-3.723,-3.724,-3.7249,0,0,0,0,0,0,0,0,0,0,0,0,0,-3.6648,-3.648,-3.6851,-3.6874,-3.6878,-3.7046,-3.7049,-3.7052,-3.7041,-3.7037,-3.7033,-3.7029,-3.7227,-3.7239,-3.725,-3.7409,0,0,-3.7287,-3.7292,0,0,0,0,0,0,0,0,-3.6638,-3.6662,-3.6868,-3.6872,-3.6877,-3.7015,-3.6988,-3.7172,-3.7042,-3.6979,-3.7032,-3.7027,-3.7164,-3.7181,-3.7227,-3.7418,-3.7427,-3.7288,-3.7295,-3.73,-3.7304,0,0,0,0,0,0,0,-3.6626,-3.6654,-3.6929,-3.6871,-3.6877,-3.6875,-3.6895,-3.7023,-3.7093,-3.6984,-3.6984,-3.7007,-3.7165,-3.7215,-3.7231,-3.743,-3.7288,-3.7298,-3.7306,-3.731,-3.7762,-3.7767,0,0,0,0,0,0,-3.6608,-3.6643,-3.6922,-3.6934,-3.6745,-3.6885,-3.6908,-3.6975,-3.7091,-3.7105,-3.7011,-3.7006,-3.7197,-3.7217,-3.7238,-3.7432,-3.73,-3.7312,-3.7319,-3.7757,-3.7763,-3.7768,0,0,0,0,0,0,-3.66,-3.6633,-3.6915,-3.6789,-3.6825,-3.6896,-3.6971,-3.6981,-3.703,-3.7111,-3.7124,-3.7048,-3.7194,-3.7221,-3.7367,-3.7439,-3.7317,-3.7328,-3.7752,-3.7759,-3.7766,-3.782,0,0,0,0,0,0,-3.6589,-3.663,-3.6691,-3.679,-3.6831,-3.704,-3.6976,-3.6988,-3.7051,-3.7047,-3.715,-3.7163,-3.7193,-3.7349,-3.7379,-3.7453,-3.7337,-3.7746,-3.7755,-3.7764,-3.7812,-3.7828,-3.7842,0,0,0,0,0,-3.6576,-3.6699,-3.6694,-3.6728,-3.6909,-3.7044,-3.7067,-3.7099,-3.7057,-3.7119,-3.7171,-3.716,-3.7426,-3.7364,-3.7397,-3.7476,-3.7741,-3.7752,-3.7763,-3.7806,-3.7825,-3.7842,0,0,0,0,0,0,-3.6607,-3.6712,-3.6708,-3.6867,-3.6946,-3.7041,-3.712,-3.7118,-3.7212,-3.7204,-3.7239,-3.7263,-3.7409,-3.7457,-3.7386,-3.7636,-3.7578,-3.7596,-3.7599,-3.7619,-3.7633,-3.7619,-3.7347,0,0,0,0,0,-3.6632,-3.6732,-3.6819,-3.6951,-3.6991,-3.7049,-3.7109,-3.7126,-3.721,-3.7244,-3.7306,-3.7388,-3.749,-3.7557,-3.7655,-3.7819,-3.7842,-3.789,-3.7905,-3.7917,-3.7932,-3.8023,-3.8045,-3.7804,-3.7804,-3.7804,0,0,-3.6685,-3.6755,-3.6817,-3.6959,-3.7022,-3.7126,-3.7077,-3.7189,-3.7266,-3.7261,-3.7402,-3.7451,-3.7545,-3.77,-3.7771,-3.7745,-3.8004,-3.793,-3.7939,-3.7948,-3.8036,-3.8059,-3.8079,-3.7811,-3.781,-3.7809,0,0,-3.6835,-3.6898,-3.7015,-3.7079,-3.7176,-3.7214,-3.7242,-3.7338,-3.737,-3.7512,-3.751,-3.7603,-3.7778,-3.7845,-3.7902,-3.8078,-3.8071,-3.8109,-3.8187,-3.8275,-3.8294,-3.8311,-3.8374,-3.8396,-3.8123,-3.8124,-3.8124,0,-3.689,-3.7045,-3.7075,-3.7188,-3.7251,-3.725,-3.7369,-3.743,-3.7554,-3.7598,-3.7566,-3.7786,-3.7849,-3.802,-3.8063,-3.8109,-3.8143,-3.8097,-3.8288,-3.8306,-3.8322,-3.8383,-3.8406,-3.8128,-3.8127,-3.8127,-3.8126,0,-3.7107,-3.7215,-3.7298,-3.7417,-3.749,-3.7605,-3.7653,-3.7722,-3.7733,-3.7775,-3.792,-3.7995,-3.8109,-3.8151,-3.8163,-3.8324,-3.8305,-3.828,-3.8223,-3.8348,-3.8406,-3.843,-3.8133,-3.8132,-3.8131,-3.813,0,0,-3.7283,-3.7417,-3.7447,-3.7501,-3.7608,-3.7692,-3.7807,-3.7918,-3.7978,-3.8063,-3.8161,-3.8309,-3.8287,-3.8352,-3.8372,-3.8449,-3.8584,-3.8415,-3.8418,-3.8444,-3.8767,-3.8785,-3.8811,-3.858,-3.8585,-3.8588,-3.8759,0,-3.7444,-3.7648,-3.7679,-3.7859,-3.7959,-3.796,-3.806,-3.8137,-3.8178,-3.827,-3.8316,-3.8421,-3.8384,-3.8423,-3.8499,-3.8551,-3.8649,-3.8539,-3.8672,-3.8677,-3.8649,-3.8842,-3.8861,-3.9019,-3.8782,-3.8786,-3.8788,0,-3.766,-3.7751,-3.7941,-3.8034,-3.8077,-3.8167,-3.8271,-3.8358,-3.8445,-3.847,-3.8543,-3.8553,-3.8673,-3.861,-3.8776,-3.8701,-3.8757,-3.8791,-3.8798,-3.8812,-3.8741,-3.8861,-3.907,-3.9094,-3.8824,-3.8821,-3.8819,0,-3.777,-3.7939,-3.8075,-3.8121,-3.8233,-3.8296,-3.8346,-3.8428,-3.8493,-3.8585,-3.8627,-3.8731,-3.8789,-3.8869,-3.8908,-3.8858,-3.9072,-3.9012,-3.9097,-3.9096,-3.9142,-3.9139,-3.9363,-3.9177,-3.9177,-3.9177,-3.9176,0,-3.7947,-3.8063,-3.8126,-3.8209,-3.834,-3.8374,-3.8502,-3.855,-3.8623,-3.8717,-3.8724,-3.8811,-3.8856,-3.8951,-3.8981,-3.9115,-3.9141,-3.9165,-3.9171,-3.9165,-3.9162,-3.9202,-3.9193,-3.9183,-3.9182,-3.918,-3.9179,0,-3.8092,-3.8138,-3.8286,-3.838,-3.8406,-3.8498,-3.8578,-3.866,-3.87,-3.8818,-3.8848,-3.8912,-3.9024,-3.907,-3.9207,-3.9228,-3.9381,-3.9379,-3.9352,-3.9354,-3.9436,-3.9428,-3.9695,-3.9732,-3.9521,-3.9523,-3.9525,0,-3.8202,-3.8292,-3.8395,-3.8457,-3.8509,-3.8609,-3.8675,-3.8713,-3.8781,-3.8887,-3.8956,-3.9067,-3.9158,-3.9337,-3.9396,-3.9501,-3.9502,-3.9589,-3.9518,-3.9508,-3.9505,-3.9499,-3.9508,-3.9602,-3.9604,-3.9606,-3.9607,0,-3.8394,-3.8412,-3.8507,-3.861,-3.8689,-3.8772,-3.8853,-3.8904,-3.8953,-3.903,-3.9144,-3.9215,-3.9354,-3.9465,-3.9573,-3.9625,-3.9625,-3.9628,-3.9654,-3.9648,-3.9629,-3.9641,-3.9388,-3.9622,-3.9621,-3.962,-3.9619,-3.9618,-3.8526,-3.8605,-3.869,-3.8795,-3.886,-3.8936,-3.9017,-3.9067,-3.9163,-3.9279,-3.9295,-3.9417,-3.9502,-3.9648,-3.9704,-3.98,-3.9778,-3.9815,-3.9824,-3.9833,-3.9838,-3.9612,-3.982,-3.9819,-3.9819,-3.9819,-3.9818,0,-3.8718,-3.8772,-3.8869,-3.8982,-3.9065,-3.9056,-3.9146,-3.9216,-3.9323,-3.9402,-3.9491,-3.9622,-3.973,-3.9798,-3.9906,-3.997,-3.9973,-3.9998,-3.9994,-4.0006,-3.9851,-3.9819,-3.9994,-3.9994,-3.9994,-3.9994,-3.9994,-3.9994,-3.8828,-3.8962,-3.8991,-3.9157,-3.9211,-3.933,-3.9382,-3.9452,-3.9515,-3.9661,-3.975,-3.9793,-3.9868,-3.9982,-4.0081,-4.0098,-4.0138,-4.0164,-4.018,-4.0035,-4.0017,-3.9999,-3.9969,-4.0173,-4.0173,-4.0327,-4.0328,-4.0329]}]]